TimeEST,TemperatureF,Dew PointF,Humidity,Sea Level PressureIn,VisibilityMPH,Wind Direction,Wind SpeedMPH,Gust SpeedMPH,PrecipitationIn,Events,Conditions,WindDirDegrees,DateUTC
12:15 AM,51.8,46.4,82,29.66,5.0,ESE,20.7,26.5,0.04,,Overcast,110,2013-12-15 05:15:00
12:35 AM,51.8,48.2,88,29.64,5.0,SE,16.1,25.3,0.09,,Overcast,130,2013-12-15 05:35:00
12:55 AM,51.8,48.2,88,29.59,5.0,ESE,16.1,24.2,0.16,,Overcast,120,2013-12-15 05:55:00
1:15 AM,53.6,50.0,88,29.56,5.0,ESE,13.8,20.7,0.14,,Overcast,110,2013-12-15 06:15:00
1:35 AM,53.6,50.0,88,29.56,5.0,SW,10.4,18.4,0.18,,Overcast,220,2013-12-15 06:35:00
1:55 AM,53.6,51.8,94,29.54,3.0,South,8.1,-,0.22,,Overcast,170,2013-12-15 06:55:00
2:15 AM,53.6,51.8,94,29.51,6.0,South,9.2,16.1,0.01,,Overcast,180,2013-12-15 07:15:00
2:35 AM,53.6,50.0,88,29.50,4.0,SSW,4.6,-,0.01,,Overcast,210,2013-12-15 07:35:00
2:55 AM,53.6,50.0,88,29.49,4.0,WSW,9.2,-,0.01,,Overcast,240,2013-12-15 07:55:00
3:15 AM,46.4,42.8,87,29.50,1.0,NW,12.7,-,N/A,,Overcast,320,2013-12-15 08:15:00
3:35 AM,42.8,39.2,87,29.50,5.0,WNW,10.4,17.3,N/A,,Overcast,290,2013-12-15 08:35:00
3:55 AM,37.4,33.8,87,29.49,10.0,NW,12.7,-,N/A,,Overcast,310,2013-12-15 08:55:00
4:15 AM,37.4,33.8,87,29.51,6.0,WNW,12.7,-,N/A,,Overcast,290,2013-12-15 09:15:00
4:35 AM,35.6,32.0,87,29.51,4.0,WNW,11.5,17.3,N/A,,Overcast,300,2013-12-15 09:35:00
4:55 AM,35.6,32.0,87,29.54,5.0,WNW,11.5,-,N/A,,Overcast,300,2013-12-15 09:55:00
5:15 AM,35.6,30.2,81,29.53,9.0,WNW,11.5,17.3,N/A,,Overcast,300,2013-12-15 10:15:00
5:35 AM,35.6,30.2,81,29.54,9.0,WNW,8.1,16.1,N/A,,Overcast,300,2013-12-15 10:35:00
5:55 AM,35.6,30.2,81,29.55,10.0,WNW,11.5,16.1,N/A,,Overcast,300,2013-12-15 10:55:00
6:15 AM,33.8,28.4,81,29.54,10.0,WNW,9.2,-,N/A,,Overcast,300,2013-12-15 11:15:00
6:35 AM,33.8,28.4,81,29.55,10.0,WNW,9.2,-,N/A,,Overcast,300,2013-12-15 11:35:00
6:55 AM,33.8,28.4,81,29.56,10.0,WNW,10.4,-,N/A,,Overcast,290,2013-12-15 11:55:00
7:15 AM,33.8,28.4,81,29.58,10.0,West,10.4,17.3,N/A,,Overcast,280,2013-12-15 12:15:00
7:35 AM,33.8,28.4,81,29.56,10.0,WNW,12.7,16.1,N/A,,Overcast,300,2013-12-15 12:35:00
7:55 AM,33.8,28.4,81,29.55,10.0,WNW,12.7,16.1,N/A,,Overcast,300,2013-12-15 12:55:00
8:15 AM,33.8,28.4,81,29.57,5.0,West,10.4,17.3,N/A,,Overcast,280,2013-12-15 13:15:00
8:35 AM,32.0,28.4,87,29.59,9.0,WNW,13.8,20.7,N/A,,Overcast,290,2013-12-15 13:35:00
8:55 AM,32.0,28.4,87,29.58,7.0,West,6.9,-,N/A,,Overcast,280,2013-12-15 13:55:00
9:15 AM,33.8,28.4,81,29.57,9.0,West,9.2,-,N/A,,Overcast,280,2013-12-15 14:15:00
9:35 AM,33.8,28.4,81,29.58,10.0,West,11.5,17.3,N/A,,Overcast,270,2013-12-15 14:35:00
9:55 AM,33.8,28.4,81,29.60,10.0,West,13.8,18.4,N/A,,Overcast,280,2013-12-15 14:55:00
10:15 AM,33.8,28.4,81,29.61,10.0,West,13.8,-,N/A,,Overcast,280,2013-12-15 15:15:00
10:35 AM,33.8,28.4,81,29.62,10.0,WNW,13.8,23.0,N/A,,Overcast,290,2013-12-15 15:35:00
10:55 AM,35.6,28.4,75,29.61,10.0,West,13.8,21.9,N/A,,Overcast,280,2013-12-15 15:55:00
11:15 AM,35.6,28.4,75,29.61,10.0,West,16.1,25.3,N/A,,Overcast,280,2013-12-15 16:15:00
11:35 AM,37.4,30.2,75,29.61,10.0,West,21.9,26.5,N/A,,Mostly Cloudy,280,2013-12-15 16:35:00
11:55 AM,37.4,28.4,70,29.61,10.0,WNW,20.7,29.9,N/A,,Overcast,290,2013-12-15 16:55:00
12:15 PM,37.4,28.4,70,29.61,10.0,West,18.4,31.1,N/A,,Overcast,280,2013-12-15 17:15:00
12:35 PM,37.4,28.4,70,29.62,10.0,West,17.3,25.3,N/A,,Overcast,280,2013-12-15 17:35:00
12:55 PM,37.4,28.4,70,29.62,10.0,WNW,13.8,26.5,N/A,,Overcast,290,2013-12-15 17:55:00
1:15 PM,37.4,28.4,70,29.63,10.0,WNW,13.8,25.3,N/A,,Overcast,290,2013-12-15 18:15:00
1:35 PM,37.4,28.4,70,29.64,10.0,WNW,18.4,29.9,N/A,,Overcast,290,2013-12-15 18:35:00
1:55 PM,39.2,28.4,65,29.64,10.0,WNW,18.4,24.2,N/A,,Overcast,290,2013-12-15 18:55:00
2:15 PM,39.2,28.4,65,29.66,10.0,West,13.8,19.6,N/A,,Overcast,280,2013-12-15 19:15:00
2:35 PM,39.2,28.4,65,29.67,10.0,West,16.1,26.5,N/A,,Mostly Cloudy,280,2013-12-15 19:35:00
2:55 PM,39.2,28.4,65,29.68,10.0,WNW,12.7,21.9,N/A,,Overcast,290,2013-12-15 19:55:00
3:15 PM,39.2,26.6,61,29.70,10.0,West,13.8,25.3,N/A,,Overcast,280,2013-12-15 20:15:00
3:35 PM,39.2,26.6,61,29.71,10.0,West,17.3,20.7,N/A,,Overcast,280,2013-12-15 20:35:00
3:55 PM,39.2,26.6,61,29.72,10.0,West,12.7,18.4,N/A,,Overcast,280,2013-12-15 20:55:00
4:15 PM,39.2,26.6,61,29.73,10.0,West,9.2,18.4,N/A,,Overcast,270,2013-12-15 21:15:00
4:35 PM,39.2,26.6,61,29.74,10.0,West,15.0,18.4,N/A,,Mostly Cloudy,270,2013-12-15 21:35:00
4:55 PM,37.4,26.6,65,29.75,10.0,West,12.7,18.4,N/A,,Mostly Cloudy,280,2013-12-15 21:55:00
5:15 PM,37.4,24.8,60,29.75,10.0,West,9.2,-,N/A,,Scattered Clouds,280,2013-12-15 22:15:00
5:35 PM,37.4,24.8,60,29.76,10.0,West,9.2,-,N/A,,Mostly Cloudy,280,2013-12-15 22:35:00
5:55 PM,37.4,24.8,60,29.77,10.0,West,9.2,-,N/A,,Overcast,270,2013-12-15 22:55:00
6:15 PM,37.4,24.8,60,29.78,10.0,West,6.9,-,N/A,,Overcast,260,2013-12-15 23:15:00
6:35 PM,37.4,24.8,60,29.78,10.0,West,12.7,20.7,N/A,,Mostly Cloudy,280,2013-12-15 23:35:00
6:55 PM,37.4,23.0,56,29.79,10.0,West,8.1,-,N/A,,Overcast,270,2013-12-15 23:55:00
7:15 PM,37.4,23.0,56,29.81,10.0,West,13.8,21.9,N/A,,Mostly Cloudy,280,2013-12-16 00:15:00
7:35 PM,37.4,21.2,52,29.81,10.0,WNW,10.4,-,N/A,,Mostly Cloudy,290,2013-12-16 00:35:00
7:55 PM,37.4,21.2,52,29.82,10.0,West,11.5,16.1,N/A,,Overcast,270,2013-12-16 00:55:00
8:15 PM,35.6,19.4,52,29.83,10.0,West,13.8,23.0,N/A,,Scattered Clouds,280,2013-12-16 01:15:00
8:35 PM,35.6,19.4,52,29.84,10.0,West,11.5,23.0,N/A,,Clear,280,2013-12-16 01:35:00
8:55 PM,33.8,19.4,56,29.85,10.0,WNW,11.5,-,N/A,,Clear,290,2013-12-16 01:55:00
9:15 PM,33.8,17.6,52,29.85,10.0,WNW,9.2,-,N/A,,Clear,290,2013-12-16 02:15:00
9:35 PM,33.8,17.6,52,29.86,10.0,West,8.1,-,N/A,,Clear,280,2013-12-16 02:35:00
9:55 PM,33.8,19.4,56,29.87,10.0,West,5.8,-,N/A,,Mostly Cloudy,280,2013-12-16 02:55:00
10:15 PM,33.8,17.6,52,29.87,10.0,West,8.1,-,N/A,,Scattered Clouds,270,2013-12-16 03:15:00
10:35 PM,33.8,17.6,52,29.87,10.0,West,10.4,-,N/A,,Clear,260,2013-12-16 03:35:00
10:55 PM,32.0,17.6,55,29.87,10.0,West,9.2,-,N/A,,Clear,260,2013-12-16 03:55:00
11:15 PM,32.0,17.6,55,29.87,10.0,WSW,6.9,-,N/A,,Clear,250,2013-12-16 04:15:00
11:35 PM,30.2,17.6,60,29.87,10.0,WSW,6.9,-,N/A,,Clear,240,2013-12-16 04:35:00
11:55 PM,30.2,17.6,60,29.86,10.0,SW,8.1,-,N/A,,Clear,230,2013-12-16 04:55:00